Location: Oak Harbor
(48.2930°N, 122.6420°W)
Time: 07:51:00
(UTC-07:00)

ISS - Visible Passes

Search period start: 17 March 2026 00:00
Search period end: 27 March 2026 00:00
Orbit: 417 x 426 km, 51.6° (Epoch: 17 March)

Date Brightness Start Highest point End Pass type
(mag) Time Alt. Az. Time Alt. Az. Time Alt. Az.
17 Mar -3.0 21:11:49 10° WNW 21:15:07 46° N 21:15:40 41° NNE visible
18 Mar -3.0 20:24:50 10° W 20:28:10 49° N 20:30:44 15° ENE visible
18 Mar -1.6 22:01:59 10° WNW 22:03:44 27° NW 22:03:44 27° NW visible
19 Mar -3.2 21:15:04 10° WNW 21:18:23 49° N 21:18:46 46° NNE visible
20 Mar -3.0 20:28:06 10° WNW 20:31:24 46° N 20:33:45 17° ENE visible
20 Mar -1.6 22:05:04 10° WNW 22:06:45 27° WNW 22:06:45 27° WNW visible
21 Mar -3.7 21:18:07 10° WNW 21:21:32 69° NNE 21:21:43 67° NE visible
22 Mar -3.4 20:31:10 10° WNW 20:34:32 57° NNE 20:36:40 20° E visible
22 Mar -1.5 22:08:05 10° WNW 22:09:40 23° W 22:09:40 23° W visible
23 Mar -3.7 21:21:03 10° WNW 21:24:26 64° SSW 21:24:37 62° S visible
24 Mar -3.8 20:34:02 10° WNW 20:37:27 88° SSW 20:39:35 21° ESE visible
24 Mar -1.1 22:11:25 10° W 22:12:35 16° WSW 22:12:35 16° WSW visible
25 Mar -2.3 21:24:05 10° W 21:27:04 29° SW 21:27:34 27° SSW visible
26 Mar -2.8 20:36:53 10° WNW 20:40:07 42° SSW 20:42:36 15° SE visible
